Content
SEND FEEDBACK

Daily
Averages
Monthly
Summary
United States of America

ST. LOUIS - SAINT LOUIS UNIVERSITY, MISSOURI


Home > North America > United States > Missouri
Elevation: 580 feet     Latitude: 38 38N     Longitude: 090 14W

WEATHER
 
SELECT A DAY
Number of Records: 185,982;   Date Range: 1/1/95 - 7/22/14
 
SHARE

PRINT THIS DATA

[ ← Previous Day ]
WEATHER ALMANAC - FEBRUARY 5, 2013
[ Next Day → ]
[ °C ]   °F
Weather ElementAverageHighLow
Temperature37.3 °F57 °F (2:53 pm) (10:53 am)
Dewpoint27.4 °F34 °F (12:53 pm) (7:00 pm)
Humidity68.8 %88 % (4:53 am)40 % (2:53 pm)
Barometer29.99 in30.15 in (11:53 pm)29.91 in (12:53 pm)
Wind Speed5.9 mph12.7 mph (3:53 pm)
Weather ElementAverage
Visibility8.6 mi
Wind DirectionS (178.8 °)

Weather ElementTotal
Precipitation---
Heating Degree Days36.5 (Base 65)
Averaged from 25 records on February 5, 2013
WEATHER CONDITIONS BREAKOUT
WIND DIRECTION BREAKOUT
WEATHER BY HOUR - FEBRUARY 5, 2013
[ °C ]   °F
Local TimeTemperatureDewpointHumidityBarometerVisibilityWind DirectionWind SpeedGust SpeedPrecipitationEventsConditions
1:08 AM30.2 °F24.8 °F80 %29.97 in9.0 miNNW (340°)3.5 mphOvercast
1:53 AM30.0 °F24.1 °F79 %29.98 in9.0 miCalmOvercast
2:53 AM30.0 °F24.1 °F79 %29.97 in8.0 miCalmOvercast
3:53 AM28.9 °F24.1 °F82 %29.97 in7.0 miCalmOvercast
4:53 AM28.0 °F25.0 °F88 %29.98 in6.0 miCalmOvercast
5:23 AM28.4 °F24.8 °F86 %29.97 in6.0 miCalmScattered Clouds
5:53 AM28.0 °F25.0 °F88 %29.98 in5.0 miSSE (160°)3.5 mphClear
6:53 AM28.0 °F25.0 °F88 %29.96 in6.0 miSSE (160°)3.5 mphScattered Clouds
7:53 AM28.9 °F25.0 °F85 %29.98 in5.0 miSSE (160°)4.6 mphClear
8:53 AM32.0 °F26.1 °F79 %29.99 in7.0 miSSW (200°)5.8 mphScattered Clouds
9:53 AM34.0 °F27.0 °F75 %29.97 inNorthClear
10:53 AM0.0 °F0.0 °F29.95 in9.0 miSSW (200°)9.2 mphClear
11:53 AM42.1 °F30.9 °F65 %29.94 in10.0 miWSW (250°)6.9 mphClear
12:53 PM48.9 °F34.0 °F56 %29.91 in10.0 miSW (230°)8.1 mphClear
1:53 PM54.0 °F33.1 °F45 %29.91 in10.0 miWest (260°)9.2 mphClear
2:53 PM57.0 °F33.1 °F40 %29.91 in10.0 miWest (260°)11.5 mphClear
3:53 PM55.9 °F32.0 °F40 %29.93 in10.0 miWNW (300°)12.7 mphClear
4:53 PM53.1 °F32.0 °F45 %29.95 in10.0 miNW (310°)12.7 mphClear
5:53 PM48.9 °F32.0 °F52 %29.98 in10.0 miNW (320°)12.7 mphClear
6:53 PM46.0 °F32.0 °F58 %30.02 in10.0 miNW (310°)11.5 mphClear
7:53 PM45.0 °F30.9 °F58 %30.05 in10.0 miWNW (300°)5.8 mphClear
8:53 PM42.1 °F30.9 °F65 %30.09 in10.0 miNorth (350°)6.9 mphClear
9:53 PM41.0 °F30.9 °F67 %30.13 in10.0 miNorth (360°)12.7 mphClear
10:53 PM36.0 °F28.9 °F76 %30.13 in10.0 miCalmClear
11:53 PM36.0 °F28.9 °F76 %30.15 in10.0 miCalmClear
Hourly data recorded from KCPS, located miles away from St. Louis - Saint Louis University, Missouri







STORIES FROM OUR PARTNERS